[[{"header":{"parameterUnit":"m.s-1","parameterCategory":1,"la1":30.2991,"la2":30.254,"lo1":-89.0895,"lo2":-89.0444,"dy":0.0017,"dx":0.0017,"nx":28,"ny":28,"refTime":"2023-09-22T21:00:00:Z","depth":0,"parameterNumber":2,"parameterNumberName":"U-component_of_WINDS"},"data":[0,0,0,0,0,0,0,0,0,0,0,0,0,0,0,0,0,0,0,0,0,0,0,0,0,0,0,0,0,0,0,0,0,0,0,0,0,0,0,0,0,0,0,0,0,0,0,0,0,0,0,0,0,0,0,0,0,0,-1.0067,-1.0066,0,-1.0017,-1.0016,-1.0016,-0.997,-0.997,-0.9969,-0.9969,-0.9916,-0.9915,-0.9914,0,0,0,0,0,0,0,0,0,0,0,0,0,-1.0121,-1.012,-1.0067,-1.0066,-1.0065,-1.0017,-1.0016,-1.0016,-0.997,-0.997,-0.9969,-0.9968,-0.9916,-0.9915,-0.9914,0,0,0,0,0,0,0,0,0,0,0,0,0,-1.0087,-1.012,-1.0067,-1.0037,-1.0034,-1.0017,-1.0016,-1.0015,-0.997,-0.997,-0.9969,-0.9968,-0.9917,-0.9915,-0.9914,-0.9923,0,0,-0.991,-0.991,0,0,0,0,0,0,0,0,-1.0089,-1.0085,-1.0042,-1.0039,-1.0035,-0.9999,-1.0016,-0.9984,-0.9971,-0.9994,-0.9969,-0.9968,-0.9944,-0.9941,-0.9933,-0.992,-0.9918,-0.991,-0.9909,-0.9909,-0.9908,0,0,0,0,0,0,0,-1.0092,-1.0087,-1.0047,-1.0041,-1.0037,-1.0026,-1.002,-1.001,-0.9975,-0.9992,-0.9989,-0.9984,-0.9942,-0.9934,-0.9932,-0.9917,-0.991,-0.9909,-0.9908,-0.9908,-0.9909,-0.991,0,0,0,0,0,0,-1.0099,-1.0089,-1.0048,-1.0045,-1.0061,-1.0025,-1.0019,-1.0011,-0.9975,-0.9968,-0.9984,-0.9982,-0.9937,-0.9933,-0.9929,-0.9937,-0.9909,-0.9907,-0.9907,-0.9908,-0.9909,-0.991,0,0,0,0,0,0,-1.01,-1.0095,-1.005,-1.0066,-1.006,-1.0025,-1.0017,-1.0011,-1.0003,-0.9969,-0.9962,-0.9983,-0.9936,-0.9931,-0.9925,-0.9935,-0.9907,-0.9906,-0.9907,-0.9909,-0.991,-0.9953,0,0,0,0,0,0,-1.0102,-1.0096,-1.0099,-1.0067,-1.0059,-1.0047,-1.0018,-1.0011,-1.0001,-0.9997,-0.9966,-0.9959,-0.9935,-0.9927,-0.9924,-0.9932,-0.9905,-0.9906,-0.9908,-0.9909,-0.995,-0.9955,-0.996,0,0,0,0,0,-1.0104,-1.0113,-1.01,-1.0095,-1.0062,-1.0048,-1.0043,-1.0016,-1.0002,-1.0005,-0.9983,-0.996,-0.9934,-0.9927,-0.9922,-0.9931,-0.9906,-0.9908,-0.9909,-0.9948,-0.9954,-0.996,0,0,0,0,0,0,-1.0147,-1.0108,-1.0093,-1.0092,-1.0074,-1.004,-1.0043,-1.0023,-1.0008,-1.0005,-0.9971,-0.9964,-0.9961,-0.9945,-0.9938,-0.9938,-0.9917,-0.9918,-0.9948,-0.9954,-0.9958,-0.9962,-0.9904,0,0,0,0,0,-1.0156,-1.0148,-1.0114,-1.0117,-1.0108,-1.0077,-1.007,-1.005,-1.003,-1.0022,-0.9999,-0.998,-0.9967,-0.9959,-0.9946,-0.9948,-0.9941,-0.9952,-0.9957,-0.9961,-0.9962,-0.9962,-0.9967,-0.9916,-0.9916,-0.9916,0,0,-1.0175,-1.0153,-1.015,-1.0125,-1.0108,-1.01,-1.0071,-1.0064,-1.0057,-1.002,-1.0013,-0.9996,-0.9972,-0.997,-0.9968,-0.9957,-0.9974,-0.9963,-0.9966,-0.9965,-0.9965,-0.9969,-0.9974,-0.9918,-0.9918,-0.9917,0,0,-1.0206,-1.0188,-1.0189,-1.0173,-1.0149,-1.0128,-1.0128,-1.0098,-1.0085,-1.0078,-1.005,-1.0042,-1.0021,-1.0005,-0.9995,-1.0021,-1.0,-1.0017,-1.0041,-1.0042,-1.0046,-1.0049,-1.0059,-1.0063,-1.0018,-1.0019,-1.0019,0,-1.0233,-1.022,-1.0191,-1.0186,-1.0176,-1.0142,-1.0142,-1.0128,-1.0101,-1.0095,-1.0082,-1.0056,-1.0037,-1.0032,-1.0038,-1.003,-1.003,-1.002,-1.0048,-1.0051,-1.0054,-1.0062,-1.0066,-1.0021,-1.0021,-1.002,-1.002,0,-1.0254,-1.0246,-1.0249,-1.0224,-1.0214,-1.0211,-1.0182,-1.0175,-1.0157,-1.0138,-1.0131,-1.0107,-1.0089,-1.0086,-1.0068,-1.0078,-1.0072,-1.0054,-1.0033,-1.0061,-1.0069,-1.0072,-1.0024,-1.0023,-1.0023,-1.0022,0,0,-1.031,-1.027,-1.0271,-1.026,-1.0231,-1.0224,-1.022,-1.0202,-1.0198,-1.018,-1.0176,-1.0159,-1.0143,-1.0131,-1.0111,-1.0111,-1.0134,-1.0094,-1.0093,-1.0102,-1.0144,-1.0157,-1.0162,-1.012,-1.012,-1.0121,-1.0146,0,-1.0336,-1.0327,-1.0302,-1.0301,-1.0293,-1.0261,-1.0258,-1.024,-1.0222,-1.0212,-1.0192,-1.0181,-1.0161,-1.0153,-1.0153,-1.0131,-1.0142,-1.0129,-1.0115,-1.0115,-1.0123,-1.0166,-1.0179,-1.0204,-1.0149,-1.0149,-1.015,0,-1.0366,-1.0351,-1.0349,-1.0321,-1.0317,-1.0314,-1.0296,-1.0288,-1.0267,-1.0254,-1.0241,-1.0218,-1.0212,-1.0193,-1.0184,-1.0176,-1.0169,-1.0158,-1.0158,-1.0155,-1.0134,-1.0164,-1.0212,-1.0216,-1.0154,-1.0154,-1.0153,0,-1.0407,-1.0386,-1.0383,-1.0374,-1.0341,-1.034,-1.0326,-1.0304,-1.0296,-1.028,-1.0274,-1.0258,-1.0249,-1.0237,-1.0211,-1.0199,-1.0205,-1.0183,-1.0194,-1.0195,-1.0197,-1.0197,-1.0244,-1.0192,-1.0192,-1.0192,-1.0192,0,-1.0439,-1.0439,-1.0401,-1.0399,-1.0399,-1.0369,-1.0369,-1.0352,-1.0333,-1.0327,-1.0299,-1.0294,-1.026,-1.0251,-1.023,-1.0226,-1.0222,-1.0211,-1.0206,-1.0214,-1.0215,-1.0209,-1.0206,-1.0193,-1.0193,-1.0193,-1.0192,0,-1.0485,-1.046,-1.0454,-1.0424,-1.0416,-1.0417,-1.0391,-1.0388,-1.0368,-1.0361,-1.0358,-1.0327,-1.0315,-1.0288,-1.0268,-1.0254,-1.0256,-1.0246,-1.0263,-1.026,-1.0272,-1.0272,-1.0316,-1.0321,-1.0267,-1.0267,-1.0268,0,-1.0508,-1.0507,-1.0477,-1.0471,-1.0459,-1.045,-1.0441,-1.0412,-1.0404,-1.038,-1.038,-1.0366,-1.0353,-1.0335,-1.0311,-1.0296,-1.0285,-1.0302,-1.0283,-1.0291,-1.0286,-1.0286,-1.0286,-1.0306,-1.0307,-1.0308,-1.0308,0,-1.055,-1.0537,-1.0526,-1.0511,-1.0501,-1.0487,-1.0472,-1.0469,-1.0436,-1.0428,-1.0416,-1.0406,-1.0387,-1.0373,-1.0354,-1.034,-1.0319,-1.0315,-1.0316,-1.0325,-1.0335,-1.033,-1.0275,-1.0314,-1.0313,-1.0313,-1.0312,-1.0312,-1.0585,-1.0583,-1.0562,-1.055,-1.0536,-1.0522,-1.0518,-1.0498,-1.0488,-1.047,-1.0453,-1.0443,-1.0422,-1.0395,-1.0382,-1.0373,-1.0362,-1.0365,-1.0365,-1.0367,-1.037,-1.0336,-1.037,-1.0369,-1.0369,-1.0369,-1.0369,0,-1.0626,-1.0611,-1.0601,-1.058,-1.0571,-1.0553,-1.0535,-1.0529,-1.052,-1.0502,-1.0491,-1.0477,-1.0463,-1.0439,-1.0423,-1.0421,-1.0411,-1.0418,-1.0418,-1.0415,-1.0381,-1.0381,-1.0426,-1.0426,-1.0426,-1.0426,-1.0426,-1.0426,-1.0647,-1.0643,-1.0628,-1.0617,-1.0602,-1.0592,-1.0583,-1.0571,-1.0557,-1.0542,-1.0532,-1.0516,-1.0495,-1.0478,-1.0465,-1.0458,-1.0454,-1.0464,-1.0454,-1.0423,-1.0417,-1.0412,-1.0412,-1.0464,-1.0464,-1.0489,-1.049,-1.049]},{"header":{"parameterUnit":"m.s-1","parameterCategory":1,"la1":30.2991,"la2":30.254,"lo1":-89.0895,"lo2":-89.0444,"dy":0.0017,"dx":0.0017,"nx":28,"ny":28,"refTime":"2023-09-22T21:00:00:Z","depth":0,"parameterNumber":3,"parameterNumberName":"V-component_of_WINDS"},"data":[0,0,0,0,0,0,0,0,0,0,0,0,0,0,0,0,0,0,0,0,0,0,0,0,0,0,0,0,0,0,0,0,0,0,0,0,0,0,0,0,0,0,0,0,0,0,0,0,0,0,0,0,0,0,0,0,0,0,3.1478,3.1478,0,3.1462,3.1462,3.1462,3.145,3.145,3.145,3.145,3.143,3.1429,3.1429,0,0,0,0,0,0,0,0,0,0,0,0,0,3.1498,3.1497,3.1478,3.1478,3.1478,3.1462,3.1462,3.1462,3.145,3.145,3.145,3.145,3.143,3.143,3.1429,0,0,0,0,0,0,0,0,0,0,0,0,0,3.1486,3.1497,3.1478,3.147,3.147,3.1462,3.1462,3.1462,3.145,3.145,3.145,3.145,3.143,3.143,3.1429,3.1427,0,0,3.1427,3.1427,0,0,0,0,0,0,0,0,3.1487,3.1485,3.1472,3.1471,3.147,3.1458,3.1461,3.145,3.145,3.1457,3.145,3.145,3.1439,3.1438,3.1435,3.1426,3.1425,3.1427,3.1426,3.1426,3.1426,0,0,0,0,0,0,0,3.1487,3.1486,3.1472,3.1472,3.147,3.1467,3.1465,3.1459,3.1449,3.1457,3.1456,3.1454,3.1439,3.1436,3.1434,3.1425,3.1427,3.1426,3.1426,3.1425,3.1415,3.1415,0,0,0,0,0,0,3.149,3.1487,3.1472,3.1471,3.1478,3.1467,3.1465,3.1462,3.1449,3.1447,3.1454,3.1454,3.1437,3.1435,3.1434,3.1431,3.1426,3.1425,3.1425,3.1415,3.1415,3.1415,0,0,0,0,0,0,3.149,3.1489,3.1473,3.1479,3.1477,3.1467,3.1463,3.1462,3.1459,3.1447,3.1445,3.1453,3.1437,3.1434,3.1429,3.143,3.1425,3.1424,3.1415,3.1415,3.1415,3.1426,0,0,0,0,0,0,3.1491,3.1489,3.1489,3.1479,3.1476,3.147,3.1464,3.1461,3.1458,3.1457,3.1446,3.1444,3.1436,3.143,3.1429,3.1429,3.1424,3.1415,3.1415,3.1415,3.1425,3.1426,3.1427,0,0,0,0,0,3.1492,3.1491,3.1489,3.1487,3.1476,3.147,3.1468,3.1461,3.1458,3.1457,3.145,3.1444,3.1431,3.143,3.1428,3.1428,3.1415,3.1415,3.1415,3.1425,3.1426,3.1427,0,0,0,0,0,0,3.15,3.149,3.1487,3.1483,3.1478,3.1468,3.1467,3.1462,3.1456,3.1455,3.1445,3.1443,3.1439,3.1433,3.1432,3.1426,3.1422,3.1422,3.143,3.1431,3.1432,3.1433,3.1423,0,0,0,0,0,3.1502,3.1499,3.149,3.1487,3.1485,3.1476,3.1473,3.1468,3.1462,3.1459,3.1451,3.1444,3.1438,3.1434,3.1428,3.1425,3.1422,3.1424,3.1425,3.1426,3.1426,3.1424,3.1425,3.1416,3.1416,3.1416,0,0,3.1505,3.1499,3.1497,3.1489,3.1484,3.148,3.1474,3.147,3.1467,3.1458,3.1453,3.1447,3.1438,3.1434,3.1432,3.1429,3.1428,3.1426,3.1427,3.1426,3.1424,3.1425,3.1426,3.1417,3.1416,3.1416,0,0,3.1508,3.1504,3.1502,3.1497,3.149,3.1485,3.1484,3.1476,3.1472,3.1467,3.146,3.1456,3.1446,3.1441,3.1436,3.144,3.1434,3.1438,3.1442,3.1441,3.1441,3.1442,3.1443,3.1443,3.1438,3.1438,3.1438,0,3.1512,3.1507,3.1501,3.1498,3.1495,3.1487,3.1485,3.1481,3.1472,3.1469,3.1467,3.1455,3.1449,3.1444,3.1445,3.1442,3.1441,3.1439,3.1442,3.1443,3.1443,3.1444,3.1444,3.1438,3.1438,3.1438,3.1438,0,3.1513,3.1509,3.1509,3.1502,3.1498,3.1496,3.1488,3.1486,3.1481,3.1476,3.1472,3.1464,3.1457,3.1455,3.145,3.1449,3.1448,3.1444,3.1439,3.1444,3.1445,3.1445,3.1439,3.1439,3.1439,3.1439,0,0,3.152,3.1511,3.151,3.1507,3.15,3.1497,3.1494,3.1488,3.1486,3.148,3.1477,3.147,3.1467,3.1462,3.1457,3.1455,3.1459,3.1451,3.1451,3.1453,3.1457,3.146,3.146,3.1455,3.1455,3.1455,3.1458,0,3.1522,3.1517,3.1512,3.1509,3.1506,3.15,3.1497,3.1492,3.1487,3.1483,3.1478,3.1473,3.1469,3.1466,3.1465,3.1458,3.1459,3.1458,3.1451,3.1451,3.1453,3.1461,3.1463,3.1466,3.1458,3.1458,3.1458,0,3.1523,3.1519,3.1516,3.151,3.1508,3.1506,3.1501,3.1498,3.1492,3.1489,3.1484,3.1479,3.1475,3.1472,3.1467,3.1466,3.1463,3.146,3.146,3.1458,3.1454,3.1459,3.1467,3.1467,3.1458,3.1458,3.1458,0,3.1529,3.1522,3.152,3.1518,3.151,3.1509,3.1505,3.15,3.1497,3.1492,3.149,3.1485,3.1481,3.1477,3.147,3.1468,3.1466,3.1462,3.1462,3.1463,3.1461,3.1461,3.1468,3.146,3.146,3.146,3.146,0,3.1531,3.1529,3.1522,3.1521,3.1519,3.1513,3.1511,3.1507,3.1502,3.1499,3.1493,3.1491,3.1482,3.1479,3.1473,3.147,3.1468,3.1465,3.1464,3.1465,3.1466,3.1463,3.1462,3.1461,3.1461,3.1461,3.1461,0,3.1536,3.1531,3.1528,3.1522,3.1521,3.1519,3.1514,3.1512,3.1507,3.1504,3.1503,3.1496,3.1491,3.1485,3.1477,3.1474,3.1471,3.1469,3.1473,3.1472,3.1473,3.1473,3.1478,3.1478,3.1471,3.1471,3.1471,0,3.1538,3.1536,3.1531,3.1529,3.1526,3.1523,3.1521,3.1515,3.1512,3.1507,3.1505,3.1501,3.1496,3.1489,3.1483,3.1478,3.1475,3.1478,3.1474,3.1476,3.1475,3.1475,3.1475,3.1478,3.1478,3.1478,3.1478,0,3.1541,3.1539,3.1536,3.1533,3.153,3.1527,3.1523,3.1522,3.1515,3.1513,3.1509,3.1506,3.15,3.1495,3.1489,3.1485,3.148,3.148,3.1479,3.148,3.1483,3.1481,3.1475,3.1479,3.1479,3.1479,3.1479,3.1479,3.1544,3.1543,3.1539,3.1536,3.1533,3.153,3.1528,3.1524,3.1521,3.1516,3.1513,3.1509,3.1504,3.1496,3.1492,3.1489,3.1487,3.1487,3.1486,3.1486,3.1487,3.1485,3.1488,3.1488,3.1488,3.1488,3.1488,0,3.1547,3.1544,3.1542,3.1538,3.1535,3.1533,3.1529,3.1527,3.1524,3.152,3.1516,3.1512,3.1508,3.1502,3.1497,3.1496,3.1493,3.1494,3.1494,3.1493,3.1489,3.149,3.1496,3.1496,3.1496,3.1496,3.1496,3.1496,3.1548,3.1546,3.1544,3.154,3.1538,3.1535,3.1533,3.153,3.1527,3.1522,3.1519,3.1516,3.1511,3.1506,3.1502,3.1501,3.1499,3.1501,3.1498,3.1494,3.1493,3.1493,3.1493,3.15,3.15,3.1502,3.1502,3.1502]}]]